Regional Weather Roundup
Issued by NWS

Home | Current Version | Previous Version | Graphics & Text | Print | Product List | Glossary On
Versions: 1 2 3 4 5 6 7 8 9 10 11 12 13 14 15 16 17 18 19 20 21 22 23 24 25 26 27 28 29 30 31 32 33 34 35 36 37 38 39 40 41 42 43 44 45 46 47 48 49 50
000
ASUS45 KTFX 020210
RWRMT
MONTANA REGIONAL WEATHER ROUNDUP
NATIONAL WEATHER SERVICE GREAT FALLS MT
800 PM MDT MON JUN 01 2015

NOTE: "FAIR" INDICATES FEW OR NO CLOUDS BELOW 12000 FEET WITH NO
SIGNIFICANT WEATHER AND/OR OBSTRUCTIONS TO VISIBILITY.

MTZ001>007-043-020300-
WEST OF THE DIVIDE

CITY           SKY/WX    TMP DP  RH WIND       PRES   REMARKS
KALISPELL      RAIN      61  54  77 SW8       29.85R
MISSOULA       CLOUDY    61  55  81 NW8       29.86R
BUTTE          CLOUDY    56  48  74 E3        29.96R
MULLAN PASS    HVY RAIN  47  46  97 SE6       29.97R FOG
DEER LODGE       N/A     63  50  63 CALM      29.95R
EUREKA           N/A     73  46  38 S14       29.79R
HAMILTON         N/A     64  50  59 N3        29.84S
LIBBY            N/A     57  57 100 NE5       29.87F
PLAINS           N/A     61  56  83 CALM      29.87R
RONAN            N/A     63  54  72 E1        29.92R
THOMPSON FALLS   N/A     63  58  83 W2        29.90R
$$

MTZ008-052>055-020300-
SOUTHWEST MONTANA

CITY           SKY/WX    TMP DP  RH WIND       PRES   REMARKS
BOZEMAN        CLOUDY    59  52  77 SE6       29.93F
DILLON         CLOUDY    59  46  62 SE5       29.95R
W YELLOWSTONE  CLOUDY    46  46 100 SE5       30.09F
THREE FORKS      N/A     61  20  20 CALM      29.93R
$$

MTZ009-010-012-014-046-048-049-054-020300-
EAST SLOPES AND CENTRAL MONTANA

CITY           SKY/WX    TMP DP  RH WIND       PRES   REMARKS
CUT BANK       LGT RAIN  65  48  54 SE10      29.87R
GREAT FALLS    CLOUDY    56  55  97 E17       29.88F
HELENA         CLOUDY    62  52  69 NW9       29.88S
CONRAD           N/A     64  58  81 SW7       29.90F
$$

MTZ011-013-016-021-045-047-050-051-020300-
NORTH CENTRAL MONTANA

CITY           SKY/WX    TMP DP  RH WIND       PRES   REMARKS
HAVRE          CLOUDY    75  44  33 E15       29.83R
LEWISTOWN      TSTM      57  52  83 W23       29.94R
N BAR RANCH    CLOUDY    64  52  63 NW7       29.89R
CHINOOK          N/A     73  43  33 NE7       29.84R
FORT BENTON      N/A     61  55  82 SW14G24   29.91R
$$

MTZ017>020-022>027-061-062-020300-
NORTHEAST MONTANA

CITY           SKY/WX    TMP DP  RH WIND       PRES   REMARKS
GLASGOW        MOCLDY    75  49  39 NE17      29.78R
JORDAN           N/A     76  51  41 NE9       29.78R
SIDNEY         CLEAR     81  54  39 N7        29.75S
WOLF POINT     MOCLDY    79  52  38 N15G25    29.77R
MALTA            N/A     74  47  38 N3        29.80R
PLENTYWOOD       N/A     75  50  41 N16       29.80S
POPLAR           N/A     79  54  41 N14       29.77R
SCOBEY           N/A     73  45  36 N13       29.84R
$$

MTZ028>42-056>058-020300-
SOUTHCENTRAL AND SOUTHEAST MONTANA

CITY           SKY/WX    TMP DP  RH WIND       PRES   REMARKS
BAKER          MOCLDY    77  58  51 E5        29.78F
BILLINGS       CLOUDY    67  52  58 E8G17     29.80R
LIVINGSTON     MOCLDY    59  51  75 SW8       29.95R
MILES CITY     CLOUDY    80  52  37 NE9       29.72F
BIG TIMBER       N/A     61  48  63 SW15G25   29.93R
FORSYTH          N/A     75  54  46 NE7       29.71F
LAUREL           N/A     66  47  50 NW3       29.86R
ROUNDUP          N/A     70  55  58 SW9       29.74R
$$

REGIONAL REPORTS...DAKOTAS

CITY           SKY/WX    TMP DP  RH WIND       PRES   REMARKS
WILLISTON      PTCLDY    81  56  42 NE8       29.75R
MINOT          CLOUDY    72  60  66 SW14G24   29.76R
DICKINSON      MOCLDY    76  61  59 S10       29.76F
BEACH          FAIR      77  54  44 NE7       29.79S
CROSBY         FAIR      75  54  46 NE12      29.81R
WATFORD CITY   FAIR      73  55  53 E9        29.74R
BISMARCK       CLEAR     74  62  66 SE8       29.78F
GRAND FORKS    PTCLDY    71  47  42 S17G26    29.88F
FARGO          CLEAR     71  47  42 SE17G25   29.90F
BUFFALO SD       N/A     77  61  57 SE13      29.73S
RAPID CITY     CLOUDY    74  60  61 SE7       29.80F
$$

REGIONAL REPORTS...WYOMING/IDAHO/WASHINGTON

CITY           SKY/WX    TMP DP  RH WIND       PRES   REMARKS
GILLETTE       LGT RAIN  74  42  31 SW14G75   29.81S SQUALL
SHERIDAN       TSTM      62  50  64 W28G40    29.85R
BUFFALO WY     CLOUDY    68  43  40 W28G35    29.85F
CODY           CLOUDY    64  48  55 W5        29.86R
YELLOWSTONE LA   N/A     44  39  82 W8G20     30.20R
IDAHO FALLS    CLOUDY    59  49  69 SE9       29.98F
SALMON           N/A     66  45  45 S10       29.87S
BOISE          PTSUNNY   76  47  35 N17       29.77R THUNDER
SPOKANE        CLOUDY    72  51  47 SW25G33   29.76S THUNDER
$$

REGIONAL REPORTS...ALBERTA

CITY           SKY/WX    TMP DP  RH WIND       PRES   REMARKS
EDMONTON       MOSUNNY   59  41  51 N9        29.98R
CALGARY        CLOUDY    70  39  32 CALM      29.91R
LETHBRIDGE     PTSUNNY   72  45  37 NE9       29.86R
MEDICINE HAT   PTSUNNY   75  37  25 NE9       29.87R
$$

REGIONAL REPORTS...SASKATCHEWAN

CITY           SKY/WX    TMP DP  RH WIND       PRES   REMARKS
SWIFT CURRENT  CLEAR     70  36  28 N14       29.91R
REGINA         MOCLDY    70  43  37 N14G20    29.86R
SASKATOON      PTCLDY    66  45  45 N14       29.91S
$$


USA.gov is the U.S. government's official web portal to all federal, state and local government web resources and services.